YACHTS Weather Reports


time (UTC)temp
C
wind
direction
speed
KPH
gust
KPH
rain 1hr
cm
rain 24hr
cm
rain mn
cm
humidity
%
barometer
mb
20260505193238 11 291 1.6 12.9 0.00 0.00 0.00 90 1016.8
20260505192723 11 295 4.8 12.9 0.00 0.00 0.00 90 1016.6
20260505192210 11 274 4.8 12.9 0.00 0.00 0.00 90 1016.7
20260505191144 11 215 0.0 11.3 0.00 0.00 0.00 90 1016.7
20260505190631 11 295 1.6 11.3 0.00 0.00 0.00 90 1016.6
20260505190118 11 168 0.0 12.9 0.00 0.00 0.00 90 1016.7
20260505185605 11 224 3.2 12.9 0.00 0.00 0.00 90 1016.7
20260505185052 11 305 3.2 12.9 0.00 0.00 0.00 90 1016.7
20260505184539 11 257 0.0 12.9 0.00 0.00 0.00 90 1016.6
20260505184026 11 259 4.8 12.9 0.00 0.00 0.00 90 1016.6
20260505183513 11 309 1.6 12.9 0.00 0.00 0.00 90 1016.6
20260505183000 11 352 4.8 12.9 0.00 0.00 0.00 91 1016.5
20260505182447 11 291 6.4 12.9 0.00 0.00 0.00 90 1016.5
20260505181935 11 309 1.6 12.9 0.00 0.00 0.00 91 1016.4
20260505181421 11 277 1.6 12.9 0.00 0.00 0.00 91 1016.5
20260505180908 11 305 3.2 12.9 0.00 0.00 0.00 91 1016.4
20260505180356 11 287 0.0 9.7 0.00 0.00 0.00 91 1016.4
20260505175842 11 309 3.2 9.7 0.00 0.00 0.00 91 1016.4
20260505175330 11 0 0.0 9.7 0.00 0.00 0.00 91 1016.5
20260505174303 11 0 0.0 12.9 0.00 0.00 0.00 91 1016.4
20260505173750 11 301 0.0 12.9 0.00 0.00 0.00 91 1016.3
20260505173237 11 292 1.6 12.9 0.00 0.00 0.00 91 1016.4
20260505172724 11 292 4.8 9.7 0.00 0.00 0.00 91 1016.3
20260505172212 11 284 0.0 9.7 0.00 0.00 0.00 91 1016.3
20260505171658 11 315 0.0 9.7 0.00 0.00 0.00 91 1016.2
20260505171145 11 0 0.0 9.7 0.00 0.00 0.00 91 1016.2
20260505170632 11 309 4.8 9.7 0.00 0.00 0.00 91 1016.1
20260505170119 11 0 0.0 0.0 0.00 0.00 0.00 91 1016.2
20260505165606 11 281 1.6 6.4 0.00 0.00 0.00 91 1016.2
20260505165053 11 0 0.0 6.4 0.00 0.00 0.00 91 1016.2
20260505164540 11 295 1.6 6.4 0.00 0.00 0.00 91 1016.3
20260505164027 11 0 0.0 0.0 0.00 0.00 0.00 91 1016.2
20260505163514 11 0 0.0 9.7 0.00 0.00 0.00 91 1016.2
20260505163001 11 278 0.0 9.7 0.00 0.00 0.00 91 1016.2
20260505162448 11 294 1.6 9.7 0.00 0.00 0.00 91 1016.2
20260505161937 11 288 1.6 9.7 0.00 0.00 0.00 91 1016.3
20260505161423 11 0 0.0 8.0 0.00 0.00 0.00 91 1016.3
20260505160909 11 268 1.6 8.0 0.00 0.00 0.00 91 1016.2
20260505160356 11 0 0.0 8.0 0.00 0.00 0.00 91 1016.2
20260505153238 11 0 0.0 0.0 0.00 0.00 0.00 90 1016.3
20260505152725 11 0 0.0 0.0 0.00 0.00 0.00 90 1016.2
20260505152213 11 0 0.0 0.0 0.00 0.00 0.00 90 1016.2
20260505151659 11 0 0.0 0.0 0.00 0.00 0.00 90 1016.2
20260505151146 11 0 0.0 0.0 0.00 0.00 0.00 90 1016.1
20260505150633 11 0 0.0 0.0 0.00 0.00 0.00 90 1016.1
20260505150120 11 0 0.0 0.0 0.00 0.00 0.00 90 1016.1
20260505140358 11 0 0.0 0.0 0.00 0.00 0.00 90 1015.6
20260505130121 11 0 0.0 0.0 0.00 0.00 0.00 90 1015.2
20260505124542 11 0 0.0 0.0 0.00 0.00 0.00 90 1015.2
20260505124029 11 0 0.0 0.0 0.00 0.00 0.00 90 1015.2
20260505123516 11 0 0.0 0.0 0.00 0.00 0.00 90 1015.2
20260505123003 11 0 0.0 0.0 0.00 0.00 0.00 90 1015.1
20260505122450 11 0 0.0 0.0 0.00 0.00 0.00 90 1015.1
20260505121939 11 0 0.0 0.0 0.00 0.00 0.00 90 1015.1
20260505121424 11 0 0.0 0.0 0.00 0.00 0.00 90 1015.1
20260505120911 11 0 0.0 0.0 0.00 0.00 0.00 90 1015.1
20260505120358 11 0 0.0 0.0 0.00 0.00 0.00 90 1015.0
20260505115845 11 0 0.0 0.0 0.00 0.00 0.00 90 1015.0
20260505115332 11 0 0.0 0.0 0.00 0.00 0.00 90 1014.9
20260505114819 11 0 0.0 0.0 0.00 0.00 0.00 90 1014.9
20260505114306 11 0 0.0 0.0 0.00 0.00 0.00 90 1014.9
20260505113240 11 0 0.0 0.0 0.00 0.00 0.00 90 1014.9
20260505112727 11 0 0.0 0.0 0.00 0.00 0.00 90 1015.0
20260505112214 11 0 0.0 11.3 0.00 0.00 0.00 90 1015.0
20260505111701 11 0 0.0 11.3 0.00 0.00 0.00 90 1014.9
20260505111148 11 155 0.0 9.7 0.00 0.00 0.00 90 1015.0
20260505110635 11 0 0.0 8.0 0.00 0.00 0.00 90 1015.0
20260505110122 11 176 0.0 8.0 0.00 0.00 0.00 89 1015.0
20260505101938 11 0 0.0 9.7 0.00 0.00 0.00 89 1014.7
20260505101425 11 0 0.0 8.0 0.00 0.00 0.00 89 1014.7
20260505100912 11 0 0.0 8.0 0.00 0.00 0.00 89 1014.7
20260505100359 11 0 0.0 9.7 0.00 0.00 0.00 89 1014.8
20260505095846 11 0 0.0 9.7 0.00 0.00 0.00 89 1014.7
20260505095333 11 0 0.0 9.7 0.00 0.00 0.00 89 1014.8
20260505094820 11 0 0.0 0.0 0.00 0.00 0.00 88 1014.7
20260505094307 11 0 0.0 9.7 0.00 0.00 0.00 88 1014.6
20260505093754 11 270 0.0 9.7 0.00 0.00 0.00 88 1014.6
20260505093241 11 267 1.6 9.7 0.00 0.00 0.00 89 1014.5
20260505092728 11 0 0.0 6.4 0.00 0.00 0.00 88 1014.5
20260505092215 11 306 0.0 6.4 0.00 0.00 0.00 89 1014.5
20260505090636 11 0 0.0 0.0 0.00 0.00 0.00 89 1014.3
20260505090123 11 0 0.0 8.0 0.00 0.00 0.00 89 1014.4
20260505085610 11 0 0.0 8.0 0.00 0.00 0.00 89 1014.3
20260505085057 11 225 0.0 8.0 0.00 0.00 0.00 89 1014.3
20260505084544 11 0 0.0 0.0 0.00 0.00 0.00 89 1014.4
20260505083518 11 0 0.0 0.0 0.00 0.00 0.00 89 1014.4
20260505083005 11 299 0.0 9.7 0.00 0.00 0.00 89 1014.5
20260505082452 11 0 0.0 9.7 0.00 0.00 0.00 89 1014.4
20260505081939 11 0 0.0 9.7 0.00 0.00 0.00 89 1014.4
20260505081426 11 182 3.2 8.0 0.00 0.00 0.00 89 1014.4
20260505080913 11 127 3.2 14.5 0.00 0.00 0.00 89 1014.4
20260505080400 11 138 0.0 14.5 0.00 0.00 0.00 89 1014.4
20260505075847 11 0 0.0 14.5 0.00 0.00 0.00 89 1014.5
20260505074821 11 0 0.0 11.3 0.00 0.00 0.00 89 1014.6
20260505074307 11 0 0.0 11.3 0.00 0.00 0.00 89 1014.6
20260505073755 11 217 0.0 11.3 0.00 0.00 0.00 89 1014.5
20260505073243 11 240 0.0 9.7 0.00 0.00 0.00 89 1014.5
20260505072728 11 242 4.8 9.7 0.00 0.00 0.00 89 1014.5
20260505072215 11 0 0.0 6.4 0.00 0.00 0.00 88 1014.4
20260505071702 11 145 0.0 6.4 0.00 0.00 0.00 88 1014.4
20260505071149 11 238 0.0 4.8 0.00 0.00 0.00 88 1014.5
20260505070636 11 238 0.0 4.8 0.00 0.00 0.00 88 1014.5
20260505070124 11 197 1.6 12.9 0.00 0.00 0.00 88 1014.5
20260505065610 11 240 0.0 12.9 0.00 0.00 0.00 88 1014.6
20260505065057 11 247 0.0 12.9 0.00 0.00 0.00 88 1014.6
20260505064545 11 0 0.0 12.9 0.00 0.00 0.00 88 1014.6
20260505064031 11 0 0.0 12.9 0.00 0.00 0.00 88 1014.7
20260505063519 11 264 0.0 11.3 0.00 0.00 0.00 88 1014.7
20260505063006 11 140 0.0 11.3 0.00 0.00 0.00 88 1014.6
20260505062452 11 275 6.4 11.3 0.00 0.00 0.00 88 1014.5
20260505061939 11 0 0.0 8.0 0.00 0.00 0.00 87 1014.5
20260505061426 11 0 0.0 8.0 0.00 0.00 0.00 87 1014.4
20260505060913 11 0 0.0 8.0 0.00 0.00 0.00 87 1014.5
20260505055847 11 0 0.0 8.0 0.00 0.00 0.00 87 1014.5
20260505055336 11 0 0.0 8.0 0.00 0.00 0.00 87 1014.5
20260505054821 11 0 0.0 8.0 0.00 0.00 0.00 87 1014.5
20260505054308 11 0 0.0 8.0 0.00 0.00 0.00 87 1014.7
20260505053755 11 225 0.0 8.0 0.00 0.00 0.00 87 1014.7
20260505053242 11 0 0.0 8.0 0.00 0.00 0.00 87 1014.7
20260505052729 11 261 0.0 8.0 0.00 0.00 0.00 87 1014.7
20260505052216 11 257 1.6 8.0 0.00 0.00 0.00 86 1014.7
20260505051703 11 0 0.0 8.0 0.00 0.00 0.00 86 1014.6
20260505051152 11 0 0.0 0.0 0.00 0.00 0.00 86 1014.6
20260505050637 11 246 0.0 11.3 0.00 0.00 0.00 86 1014.6
20260505050124 11 268 0.0 11.3 0.00 0.00 0.00 86 1014.6
20260505041427 11 278 0.0 16.1 0.00 0.00 0.00 85 1014.1
20260505040915 11 245 0.0 16.1 0.00 0.00 0.00 85 1014.0
20260505040401 11 252 4.8 16.1 0.00 0.00 0.00 85 1013.9
20260505035849 11 0 0.0 9.7 0.00 0.00 0.00 85 1013.9
20260505035336 11 256 0.0 8.0 0.00 0.00 0.00 84 1013.8
20260505034822 11 259 3.2 14.5 0.00 0.00 0.00 84 1013.8
20260505034309 11 0 0.0 14.5 0.00 0.00 0.00 84 1013.7
20260505033757 11 232 0.0 14.5 0.00 0.00 0.00 84 1013.7
20260505033243 11 0 0.0 14.5 0.00 0.00 0.00 84 1013.7
20260505032730 11 261 0.0 14.5 0.00 0.00 0.00 83 1013.7
20260505032217 11 278 6.4 14.5 0.00 0.00 0.00 83 1013.6
20260505031704 11 224 0.0 12.9 0.00 0.00 0.00 83 1013.6
20260505031152 11 236 0.0 12.9 0.00 0.00 0.00 83 1013.5
20260505030638 11 0 0.0 12.9 0.00 0.00 0.00 83 1013.5
20260505030125 11 0 0.0 12.9 0.00 0.00 0.00 83 1013.5
20260505025612 11 180 0.0 12.9 0.00 0.00 0.00 83 1013.3
20260505025059 11 284 0.0 9.7 0.00 0.00 0.00 83 1013.3
20260505024546 11 0 0.0 0.0 0.00 0.00 0.00 83 1013.4
20260505024034 11 291 0.0 14.5 0.00 0.00 0.00 83 1013.4
20260505023523 11 263 4.8 14.5 0.00 0.00 0.00 83 1013.3
20260505023007 11 291 8.0 14.5 0.00 0.00 0.00 83 1013.3
20260505022454 11 295 0.0 11.3 0.00 0.00 0.00 83 1013.3
20260505021941 12 295 0.0 12.9 0.00 0.00 0.00 82 1013.2
20260505021428 12 253 0.0 12.9 0.00 0.00 0.00 82 1013.2
20260505020915 12 254 4.8 12.9 0.00 0.00 0.00 82 1013.1
20260505020402 12 250 0.0 12.9 0.00 0.00 0.00 82 1013.2
20260505015849 12 203 4.8 17.7 0.00 0.00 0.00 82 1013.2
20260505015336 12 198 3.2 17.7 0.00 0.00 0.00 82 1013.2
20260505014823 12 257 4.8 17.7 0.00 0.00 0.00 81 1013.2
20260505014310 12 228 3.2 6.4 0.00 0.00 0.00 81 1013.2
20260505013757 12 310 6.4 19.3 0.00 0.00 0.00 81 1013.2
20260505012732 12 25 3.2 16.1 0.00 0.00 0.00 81 1013.4
20260505012219 12 246 9.7 16.1 0.00 0.00 0.00 81 1013.4
20260505011705 12 231 8.0 16.1 0.00 0.00 0.00 81 1013.5
20260505011152 12 253 8.0 16.1 0.00 0.00 0.00 81 1013.6
20260505010639 12 257 3.2 16.1 0.00 0.00 0.00 81 1013.6
20260505005613 12 274 6.4 16.1 0.00 0.00 0.00 81 1013.7
20260505004034 12 274 11.3 20.9 0.00 0.00 0.00 81 1013.8
20260505003521 12 264 8.0 22.5 0.00 0.00 0.00 81 1013.8
20260505003008 13 260 8.0 22.5 0.00 0.00 0.00 81 1013.8
20260505001942 12 259 8.0 20.9 0.00 0.00 0.00 81 1013.8
20260504234311 12 264 4.8 29.0 0.00 0.00 0.00 80 1013.8
20260504232219 13 268 14.5 27.4 0.00 0.00 0.00 80 1013.8
20260504231706 13 245 9.7 27.4 0.00 0.00 0.00 80 1013.8
20260504231154 13 275 14.5 27.4 0.00 0.00 0.00 80 1013.8
20260504224548 13 254 11.3 22.5 0.00 0.00 0.00 82 1014.1
20260504224035 13 225 11.3 22.5 0.00 0.00 0.00 83 1014.2
20260504223522 13 252 8.0 20.9 0.00 0.00 0.00 83 1014.2
20260504221943 13 263 8.0 29.0 0.00 0.00 0.00 84 1014.4
20260504221430 13 260 8.0 29.0 0.00 0.00 0.00 84 1014.5
20260504220404 13 264 9.7 24.1 0.00 0.00 0.00 85 1014.6
20260504215851 12 294 3.2 24.1 0.00 0.00 0.00 85 1014.6
20260504214825 13 263 8.0 14.5 0.00 0.00 0.00 86 1014.7
20260504213759 13 285 11.3 27.4 0.00 0.00 0.00 86 1014.6
20260504212220 12 215 9.7 25.7 0.00 0.00 0.00 86 1014.7
20260504211154 12 259 12.9 25.7 0.00 0.00 0.00 86 1014.8
20260504210641 12 264 12.9 22.5 0.00 0.00 0.00 86 1014.8
20260504210128 12 229 12.9 25.7 0.00 0.00 0.00 85 1014.8
20260504205615 12 296 11.3 25.7 0.00 0.00 0.00 86 1014.8
20260504205102 13 263 8.0 25.7 0.00 0.00 0.00 87 1014.7
20260504204549 12 243 8.0 20.9 0.00 0.00 0.00 87 1014.8
20260504204036 12 263 11.3 20.9 0.00 0.00 0.00 86 1014.7
20260504203523 12 121 6.4 20.9 0.00 0.00 0.00 88 1014.8
20260504202457 12 260 11.3 24.1 0.00 0.00 0.00 89 1014.9
20260504201944 12 294 9.7 24.1 0.00 0.00 0.00 89 1014.8
20260504201431 12 284 8.0 24.1 0.00 0.00 0.00 89 1014.9
20260504200918 12 214 6.4 16.1 0.00 0.00 0.00 89 1014.9
20260504200405 12 329 6.4 19.3 0.00 0.00 0.00 89 1014.9
20260504195852 12 302 8.0 19.3 0.00 0.00 0.00 89 1014.9
20260504194826 11 0 9.7 24.1 0.00 0.00 0.00 89 1014.8
20260504194313 12 267 8.0 24.1 0.00 0.00 0.00 89 1014.9
20260504193800 12 257 8.0 24.1 0.00 0.00 0.00 89 1014.8